Home > Weather > Oshawa > Past weeks

Flag for Canada Past Weather in Oshawa, Ontario, Canada — Yesterday and Last 2 Weeks

Now
66 °F

Passing clouds.


Feels Like: 66 °F
Forecast: 61 / 82 °F
Wind: 2 mph from East

Location: Toronto Buttonville

Current Time: May 28, 2016 at 6:05:26 AM

Latest Report: May 28, 2016 at 5:00 AM


Visibility: 15 mi

Pressure: 30.04 "Hg

Humidity: 83%

Dew Point: 61 °F

Location of OshawaLocation

Past Weather in Oshawa — Graph

°F

Oshawa Temperature Yesterday

Maximum temperature yesterday: 82 °F (at 1:00 PM)
Minimum temperature yesterday: 61 °F (at 2:00 AM)
Average temperature yesterday: 72 °F

High & Low Weather Summary for the Past Weeks

 TemperatureHumidityPressure
High84 °F (May 24, 3:00 PM)100% (May 16, 11:00 PM)30.29 "Hg (May 16, 11:00 PM)
Low34 °F (May 16, 4:00 AM)23% (May 20, 4:00 PM)29.46 "Hg (May 14, 12:47 PM)
Average60 °F57%30.00 "Hg
* Reported May 13 5:00 AM — May 28 5:00 AM, Oshawa, Weather by CustomWeather, © 2016

Note: Actual official high and low records may vary slightly from our data, if they occured in-between our weather recording intervals... More about our weather records

Advertising

Oshawa Weather History for the Previous 24 Hours

Scroll right to see more
 ConditionsComfort  
Time TempWeatherWind HumidityBarometerVisibility
5:00 AM
Sat, May 28
66 °FPassing clouds.2 mph83%30.04 "Hg15 mi
4:00 AM66 °FPassing clouds.3 mph88%30.03 "Hg15 mi
3:00 AM68 °FPassing clouds.No wind78%30.02 "Hg15 mi
2:00 AM68 °FPassing clouds.2 mph78%30.01 "Hg15 mi
1:00 AM70 °FPassing clouds.2 mph78%30.01 "Hg15 mi
12:00 AM72 °FPassing clouds.6 mph78%30.01 "Hg15 mi
11:00 PM
Fri, May 27
72 °FPassing clouds.8 mph83%29.99 "Hg15 mi
10:00 PM75 °FPassing clouds.3 mph69%29.98 "Hg15 mi
9:00 PM77 °FMostly cloudy.6 mph65%29.96 "Hg15 mi
8:00 PM79 °FMore clouds than sun.5 mph61%29.95 "Hg15 mi
7:00 PM81 °FCloudy.7 mph58%29.95 "Hg15 mi
6:00 PM82 °FOvercast.9 mph58%29.95 "Hg14 mi
5:00 PM81 °FBroken clouds.6 mph66%29.96 "Hg12 mi
4:00 PM75 °FScattered showers. Cloudy.7 mph78%29.98 "Hg13 mi
3:55 PM75 °FSprinkles. Broken clouds.8 mph83%29.98 "Hg13 mi
3:00 PM73 °FThunderstorms. Partly sunny.3 mph83%29.98 "Hg6 mi
2:45 PM73 °FThunderstorms. Mostly cloudy.8 mph78%29.98 "Hg5 mi
2:00 PM81 °FScattered showers. Mostly cloudy.12 mph62%29.96 "Hg12 mi
1:00 PM82 °FMore clouds than sun.7 mph62%29.96 "Hg9 mi
12:00 PM81 °FPartly sunny.6 mph62%29.96 "Hg10 mi
11:00 AM79 °FPartly sunny.No wind65%29.96 "Hg11 mi
10:00 AM77 °FScattered clouds.5 mph69%29.95 "Hg10 mi
9:00 AM72 °FPassing clouds.3 mph78%29.96 "Hg8 mi
8:00 AM68 °FPartly sunny.2 mph83%29.97 "Hg7 mi
7:47 AM68 °FPartly sunny.3 mph83%29.96 "Hg8 mi
7:00 AM66 °FFog.2 mph88%29.96 "Hg5 mi
6:00 AM61 °FFog.No wind94%29.94 "Hg3 mi
Weather by CustomWeather, © 2016

See weather overviewHow to use our weather pages